FW6402 Weather Reports


time (UTC)temp
F
wind
direction
speed
knots
gust
knots
rain 1hr
in
rain 24hr
in
rain mn
in
humidity
%
barometer
mb
20260506211413 66 288 1.7 3.5 0.00 0.00 0.00 70 1022.8
20260506210849 66 119 0.9 3.5 0.00 0.00 0.00 72 1022.8
20260506210342 66 226 0.9 3.5 0.00 0.00 0.00 69 1022.8
20260506205840 67 267 1.7 3.5 0.00 0.00 0.00 71 1022.7
20260506205334 66 145 0.0 3.5 0.00 0.00 0.00 71 1022.7
20260506204854 66 226 0.9 5.2 0.00 0.00 0.00 71 1022.7
20260506204352 65 245 0.9 5.2 0.00 0.00 0.00 74 1022.7
20260506203847 65 262 0.9 3.5 0.00 0.00 0.00 73 1022.6
20260506203344 66 216 1.7 3.5 0.00 0.00 0.00 71 1022.6
20260506202851 66 252 0.9 4.3 0.00 0.00 0.00 73 1022.6
20260506202349 66 274 1.7 4.3 0.00 0.00 0.00 72 1022.7
20260506201846 66 265 0.0 5.2 0.00 0.00 0.00 73 1022.7
20260506201344 65 263 0.9 5.2 0.00 0.00 0.00 74 1022.8
20260506200839 65 190 0.9 2.6 0.00 0.00 0.00 73 1023.0
20260506200335 65 217 0.9 4.3 0.00 0.00 0.00 74 1022.9
20260506195832 64 250 0.9 4.3 0.00 0.00 0.00 74 1022.9
20260506195355 65 262 0.9 2.6 0.00 0.00 0.00 72 1023.0
20260506194833 65 207 0.0 2.6 0.00 0.00 0.00 73 1023.0
20260506194330 64 221 0.9 2.6 0.00 0.00 0.00 73 1023.0
20260506193914 64 293 0.9 2.6 0.00 0.00 0.00 73 1023.0
20260506193351 64 103 0.0 3.5 0.00 0.00 0.00 74 1023.0
20260506192848 65 252 1.7 3.5 0.00 0.00 0.00 72 1023.1
20260506192405 65 238 0.9 3.5 0.00 0.00 0.00 73 1022.8
20260506191837 66 236 0.9 3.5 0.00 0.00 0.00 70 1022.9
20260506191337 66 65 0.0 1.7 0.00 0.00 0.00 71 1022.8
20260506190833 66 212 0.0 1.7 0.00 0.00 0.00 73 1023.0
20260506190331 64 64 0.9 6.1 0.00 0.00 0.00 75 1023.0
20260506185855 63 295 1.7 6.1 0.00 0.00 0.00 77 1022.9
20260506185351 63 264 4.3 6.1 0.00 0.00 0.00 76 1022.8
20260506184850 63 239 1.7 3.5 0.00 0.00 0.00 76 1022.8
20260506184348 62 258 0.0 3.5 0.00 0.00 0.00 79 1022.9
20260506183845 61 237 1.7 3.5 0.00 0.00 0.00 78 1022.9
20260506183342 62 244 1.7 3.5 0.00 0.00 0.00 78 1023.0
20260506182840 62 219 1.7 3.5 0.00 0.00 0.00 79 1022.9
20260506182404 61 238 0.9 1.7 0.00 0.00 0.00 79 1022.9
20260506181901 61 237 0.9 3.5 0.00 0.00 0.00 80 1023.0
20260506181401 60 245 0.9 3.5 0.00 0.00 0.00 82 1023.0
20260506180858 60 258 1.7 3.5 0.00 0.00 0.00 81 1022.9
20260506180354 60 244 0.0 3.5 0.00 0.00 0.00 82 1023.0
20260506175900 60 257 1.7 3.5 0.00 0.00 0.00 82 1023.0
20260506175354 60 281 1.7 2.6 0.00 0.00 0.00 82 1022.9
20260506174847 60 276 0.9 2.6 0.00 0.00 0.00 82 1022.9
20260506174345 59 269 0.9 2.6 0.00 0.00 0.00 82 1022.8
20260506173843 59 225 0.0 1.7 0.00 0.00 0.00 83 1022.7
20260506173341 59 230 0.0 1.7 0.00 0.00 0.00 83 1022.7
20260506172838 59 290 0.0 1.7 0.00 0.00 0.00 83 1022.7
20260506172358 59 265 0.0 0.9 0.00 0.00 0.00 84 1022.5
20260506171854 59 214 0.0 0.9 0.00 0.00 0.00 84 1022.7
20260506171331 59 276 0.0 0.9 0.00 0.00 0.00 84 1022.8
20260506170829 59 281 0.9 1.7 0.00 0.00 0.00 83 1022.8
20260506170347 59 278 0.9 1.7 0.00 0.00 0.00 83 1022.8
20260506165844 59 268 0.0 1.7 0.00 0.00 0.00 83 1022.7
20260506165339 59 266 0.0 2.6 0.00 0.00 0.00 83 1022.7
20260506164900 59 224 0.9 1.7 0.00 0.00 0.00 83 1022.6
20260506164338 59 231 0.0 1.7 0.00 0.00 0.00 83 1022.7
20260506163857 59 276 0.9 1.7 0.00 0.00 0.00 82 1022.6
20260506163332 59 141 0.0 0.9 0.00 0.00 0.00 82 1022.5
20260506162919 59 143 0.0 0.9 0.00 0.00 0.00 81 1022.4
20260506162353 59 141 0.0 1.7 0.00 0.00 0.00 82 1022.4
20260506161907 59 158 0.9 1.7 0.00 0.00 0.00 82 1022.4
20260506161339 59 269 0.0 1.7 0.00 0.00 0.00 82 1022.3
20260506160835 59 134 0.0 1.7 0.00 0.00 0.00 82 1022.1
20260506160355 59 255 0.9 3.5 0.00 0.00 0.00 82 1022.3
20260506155831 58 116 0.0 3.5 0.00 0.00 0.00 83 1021.9
20260506155348 58 155 0.9 3.5 0.00 0.00 0.00 83 1021.8
20260506154846 57 58 1.7 3.5 0.00 0.00 0.00 84 1021.8
20260506154343 57 98 0.9 1.7 0.00 0.00 0.00 84 1022.3
20260506153910 57 302 0.9 1.7 0.00 0.00 0.00 84 1022.6
20260506153407 57 278 0.0 1.7 0.00 0.00 0.00 84 1022.6
20260506152839 57 266 0.0 2.6 0.00 0.00 0.00 84 1022.7
20260506152406 57 287 0.0 2.6 0.00 0.00 0.00 84 1022.8
20260506151904 58 266 0.9 1.7 0.00 0.00 0.00 84 1022.7
20260506151340 58 264 0.0 1.7 0.00 0.00 0.00 84 1022.7
20260506150902 58 257 0.0 1.7 0.00 0.00 0.00 84 1022.6
20260506150339 58 322 0.0 0.0 0.00 0.00 0.00 84 1022.6
20260506145858 58 263 0.0 0.0 0.00 0.00 0.00 84 1022.5
20260506145333 58 79 0.0 0.0 0.00 0.00 0.00 84 1022.6
20260506144849 58 79 0.0 0.0 0.00 0.00 0.00 84 1022.6
20260506144402 58 79 0.0 0.0 0.00 0.00 0.00 84 1022.3
20260506143847 58 80 0.0 0.0 0.00 0.00 0.00 85 1022.4
20260506143344 57 80 0.0 0.0 0.00 0.00 0.00 84 1022.0
20260506142841 57 79 0.0 0.0 0.00 0.00 0.00 84 1021.9
20260506142345 57 79 0.0 0.0 0.00 0.00 0.00 84 1021.8
20260506141844 57 77 0.0 0.0 0.00 0.00 0.00 85 1021.8
20260506141402 57 77 0.0 0.0 0.00 0.00 0.00 85 1021.8
20260506140901 57 53 0.0 0.0 0.00 0.00 0.00 85 1021.9
20260506140334 57 52 0.0 0.0 0.00 0.00 0.00 85 1021.9
20260506135854 57 68 0.0 0.0 0.00 0.00 0.00 85 1021.8
20260506135330 57 68 0.0 0.0 0.00 0.00 0.00 85 1021.7
20260506134848 57 67 0.0 0.0 0.00 0.00 0.00 85 1021.8
20260506134345 57 68 0.0 0.0 0.00 0.00 0.00 85 1021.7
20260506133841 57 38 0.0 0.0 0.00 0.00 0.00 85 1021.6
20260506133400 57 37 0.0 0.0 0.00 0.00 0.00 85 1021.6
20260506132857 57 37 0.0 0.0 0.00 0.00 0.00 85 1021.6
20260506132354 57 37 0.0 0.0 0.00 0.00 0.00 85 1021.5
20260506131846 57 37 0.0 0.0 0.00 0.00 0.00 85 1021.4
20260506131344 57 37 0.0 0.0 0.00 0.00 0.00 85 1021.5
20260506130841 57 37 0.0 0.0 0.00 0.00 0.00 85 1021.6
20260506130408 57 37 0.0 0.0 0.00 0.00 0.00 85 1021.5
20260506125843 57 37 0.0 0.0 0.00 0.00 0.00 84 1021.4
20260506125401 57 37 0.0 0.0 0.00 0.00 0.00 84 1021.3
20260506124858 57 37 0.0 0.0 0.00 0.00 0.00 84 1021.3
20260506124356 57 36 0.0 0.0 0.00 0.00 0.00 84 1021.4
20260506123848 57 36 0.0 0.0 0.00 0.00 0.00 84 1021.4
20260506123346 57 36 0.0 0.0 0.00 0.00 0.00 84 1021.4
20260506122843 57 37 0.0 0.0 0.00 0.00 0.00 84 1021.4
20260506122349 57 36 0.0 0.0 0.00 0.00 0.00 84 1021.4
20260506121846 57 36 0.0 0.0 0.00 0.00 0.00 84 1021.4
20260506121403 57 36 0.0 0.0 0.00 0.00 0.00 84 1021.3
20260506120842 57 36 0.0 0.0 0.00 0.00 0.00 85 1021.2
20260506120339 57 36 0.0 0.0 0.00 0.00 0.00 84 1021.2
20260506115858 57 36 0.0 0.0 0.00 0.00 0.00 84 1021.2
20260506115352 57 37 0.0 0.0 0.00 0.00 0.00 84 1021.1
20260506114850 57 36 0.0 0.0 0.00 0.00 0.00 84 1021.1
20260506114346 57 37 0.0 0.0 0.00 0.00 0.00 84 1021.0
20260506113839 57 37 0.0 0.0 0.00 0.00 0.00 84 1021.0
20260506113336 57 342 0.0 1.7 0.00 0.00 0.00 84 1021.0
20260506112855 57 264 0.0 1.7 0.00 0.00 0.00 84 1020.9
20260506112352 58 11 0.0 0.9 0.00 0.00 0.00 84 1020.9
20260506111831 58 39 0.0 0.9 0.00 0.00 0.00 84 1020.8
20260506111350 58 39 0.0 0.9 0.00 0.00 0.00 84 1020.8
20260506110847 58 20 0.0 0.9 0.00 0.00 0.00 84 1020.7
20260506110412 58 21 0.0 0.0 0.00 0.00 0.00 84 1020.7
20260506105845 58 22 0.0 0.0 0.00 0.00 0.00 85 1020.5
20260506105403 58 16 0.0 0.0 0.00 0.00 0.00 84 1020.4
20260506104847 58 16 0.0 0.0 0.00 0.00 0.00 85 1020.2
20260506104343 58 15 0.0 0.0 0.00 0.00 0.00 85 1020.2
20260506103838 58 16 0.0 0.0 0.00 0.00 0.00 84 1020.2
20260506103329 58 15 0.0 0.0 0.00 0.00 0.00 84 1020.1
20260506102855 58 15 0.0 0.0 0.00 0.00 0.00 83 1020.1
20260506102329 58 15 0.0 0.0 0.00 0.00 0.00 83 1019.9
20260506101843 58 15 0.0 0.9 0.00 0.00 0.00 83 1019.8
20260506101343 58 15 0.0 0.9 0.00 0.00 0.00 83 1019.9
20260506100839 58 15 0.0 1.7 0.00 0.00 0.00 83 1019.7
20260506100335 58 41 0.0 2.6 0.00 0.00 0.00 83 1019.8
20260506095844 59 38 0.0 2.6 0.00 0.00 0.00 83 1019.7
20260506095349 59 60 0.0 1.7 0.00 0.00 0.00 83 1019.7
20260506094846 59 55 0.0 0.9 0.00 0.00 0.00 83 1019.7
20260506094343 59 70 0.0 1.7 0.00 0.00 0.00 83 1019.7
20260506093838 59 70 0.0 1.7 0.00 0.00 0.00 84 1019.6
20260506093338 59 49 0.0 0.9 0.00 0.00 0.00 84 1019.6
20260506092835 59 8 0.0 0.9 0.00 0.00 0.00 85 1019.7
20260506092348 59 8 0.0 0.9 0.00 0.00 0.00 84 1019.6
20260506091846 59 20 0.0 0.9 0.00 0.00 0.00 85 1019.5
20260506091343 59 240 0.0 0.9 0.00 0.00 0.00 85 1019.5
20260506090904 59 101 0.0 0.9 0.00 0.00 0.00 86 1019.4
20260506090340 59 77 0.0 0.0 0.00 0.00 0.00 87 1019.5
20260506085831 59 77 0.0 0.0 0.00 0.00 0.00 87 1019.3
20260506085357 59 77 0.0 0.0 0.00 0.00 0.00 87 1019.5
20260506084832 59 77 0.0 0.0 0.00 0.00 0.00 86 1019.4
20260506084330 59 77 0.0 0.0 0.00 0.00 0.00 86 1019.5
20260506083844 59 77 0.0 0.9 0.00 0.00 0.00 86 1019.5
20260506083410 59 77 0.0 0.9 0.00 0.00 0.00 86 1019.5
20260506082907 59 77 0.0 0.0 0.00 0.00 0.00 86 1019.4
20260506082351 59 77 0.0 0.0 0.00 0.00 0.00 86 1019.4
20260506081847 59 77 0.0 0.0 0.00 0.00 0.00 86 1019.5
20260506081406 59 77 0.0 0.0 0.00 0.00 0.00 86 1019.5
20260506080850 59 77 0.0 0.0 0.00 0.00 0.00 86 1019.4
20260506080403 59 77 0.0 0.0 0.00 0.00 0.00 86 1019.3
20260506073333 59 77 0.0 0.9 0.00 0.00 0.00 85 1019.2
20260506072831 59 77 0.0 0.0 0.00 0.00 0.00 85 1019.2
20260506072348 59 77 0.0 0.0 0.00 0.00 0.00 85 1019.2
20260506071854 59 77 0.0 0.0 0.00 0.00 0.00 85 1019.2
20260506071408 59 77 0.0 0.0 0.00 0.00 0.00 85 1019.1
20260506070843 59 77 0.0 0.0 0.00 0.00 0.00 85 1019.1
20260506070341 59 77 0.0 0.9 0.00 0.00 0.00 85 1019.1
20260506062350 59 92 0.0 0.0 0.00 0.00 0.00 85 1019.0
20260506061842 59 91 0.0 0.0 0.00 0.00 0.00 85 1018.9
20260506061338 59 92 0.0 0.0 0.00 0.00 0.00 85 1018.9
20260506060905 59 92 0.0 0.9 0.00 0.00 0.00 85 1018.9
20260506060340 59 92 0.0 0.9 0.00 0.00 0.00 85 1018.9
20260506051340 58 110 0.0 0.0 0.00 0.00 0.00 86 1018.6
20260506050847 58 110 0.0 0.0 0.00 0.00 0.00 86 1018.5
20260506050345 58 110 0.0 0.0 0.00 0.00 0.00 86 1018.6
20260506044856 57 110 0.0 0.0 0.00 0.00 0.00 85 1018.5
20260506044349 58 110 0.0 0.0 0.00 0.00 0.00 85 1018.5
20260506043845 58 110 0.0 0.0 0.00 0.00 0.00 84 1018.4
20260506043343 58 110 0.0 0.0 0.00 0.00 0.00 84 1018.3
20260506042842 58 110 0.0 0.0 0.00 0.00 0.00 83 1018.2
20260506042338 59 110 0.0 0.0 0.00 0.00 0.00 83 1018.2
20260506041858 59 110 0.0 0.0 0.00 0.00 0.00 82 1018.1
20260506041355 59 110 0.0 0.0 0.00 0.00 0.00 82 1018.1
20260506040832 59 110 0.0 0.0 0.00 0.00 0.00 81 1018.1
20260506040349 60 110 0.0 0.0 0.00 0.00 0.00 81 1017.9
20260506035846 60 110 0.0 0.0 0.00 0.00 0.00 81 1017.9
20260506035340 60 110 0.0 0.0 0.00 0.00 0.00 80 1017.9
20260506034838 61 110 0.0 0.0 0.00 0.00 0.00 80 1017.7
20260506034337 61 110 0.0 0.0 0.00 0.00 0.00 79 1017.7
20260506033833 62 110 0.0 0.0 0.00 0.00 0.00 78 1017.6
20260506033330 62 110 0.0 0.0 0.00 0.00 0.00 77 1017.5
20260506032917 62 110 0.0 0.0 0.00 0.00 0.00 77 1017.5
20260506032353 63 110 0.0 0.0 0.00 0.00 0.00 76 1017.5
20260506031852 63 110 0.0 0.0 0.00 0.00 0.00 75 1017.5
20260506031348 63 110 0.0 0.0 0.00 0.00 0.00 75 1017.4
20260506030911 63 103 0.0 0.0 0.00 0.00 0.00 74 1017.4
20260506030346 63 103 0.0 0.0 0.00 0.00 0.00 74 1017.3
20260506025844 63 103 0.0 0.0 0.00 0.00 0.00 74 1017.3
20260506025342 63 103 0.0 0.0 0.00 0.00 0.00 73 1017.2
20260506024839 64 155 0.0 0.0 0.00 0.00 0.00 72 1017.2
20260506024359 64 84 0.0 0.0 0.00 0.00 0.00 72 1017.2
20260506023858 64 84 0.0 0.0 0.00 0.00 0.00 73 1017.2
20260506023354 64 79 0.0 0.0 0.00 0.00 0.00 72 1017.2
20260506022850 63 79 0.0 1.7 0.00 0.00 0.00 73 1017.2
20260506022346 64 99 0.9 1.7 0.00 0.00 0.00 73 1017.2
20260506021844 64 92 0.9 1.7 0.00 0.00 0.00 72 1017.2
20260506021338 64 308 0.0 0.0 0.00 0.00 0.00 71 1017.1
20260506020835 64 308 0.0 0.0 0.00 0.00 0.00 71 1017.2
20260506020354 65 309 0.0 0.0 0.00 0.00 0.00 70 1017.2
20260506015831 65 313 0.0 0.0 0.00 0.00 0.00 70 1017.2
20260506015348 65 313 0.0 0.0 0.00 0.00 0.00 70 1017.1
20260506014854 65 314 0.0 0.0 0.00 0.00 0.00 70 1017.1
20260506014351 65 288 0.0 0.0 0.00 0.00 0.00 70 1017.2
20260506013848 65 288 0.0 0.9 0.00 0.00 0.00 71 1017.2
20260506013346 65 288 0.0 0.9 0.00 0.00 0.00 70 1017.2
20260506012844 65 287 0.0 0.9 0.00 0.00 0.00 71 1017.2
20260506012355 65 281 0.0 0.9 0.00 0.00 0.00 70 1017.1
20260506011832 65 281 0.0 0.9 0.00 0.00 0.00 71 1017.1
20260506011348 65 266 0.0 0.9 0.00 0.00 0.00 72 1017.1
20260506010915 65 254 0.0 0.9 0.00 0.00 0.00 71 1017.1
20260506010330 64 264 0.0 0.9 0.00 0.00 0.00 71 1017.2
20260506005845 64 285 0.0 1.7 0.00 0.00 0.00 71 1017.1
20260506005342 64 211 0.9 1.7 0.00 0.00 0.00 70 1017.1
20260506004841 64 214 0.0 0.9 0.00 0.00 0.00 71 1017.1
20260506004348 64 266 0.0 0.9 0.00 0.00 0.00 72 1017.2
20260506003845 64 276 0.0 2.6 0.00 0.00 0.00 71 1017.2
20260506003336 65 278 0.0 2.6 0.00 0.00 0.00 71 1017.2
20260506002855 65 25 0.0 0.9 0.00 0.00 0.00 71 1017.2
20260506002354 65 226 0.0 0.9 0.00 0.00 0.00 70 1017.2
20260506001829 64 348 0.0 1.7 0.00 0.00 0.00 71 1017.2
20260506001345 64 280 0.9 2.6 0.00 0.00 0.00 72 1017.3
20260506000841 64 269 0.0 2.6 0.00 0.00 0.00 71 1017.3
20260506000339 64 283 0.0 3.5 0.00 0.00 0.00 70 1017.3
20260505235838 65 34 0.9 3.5 0.00 0.00 0.00 69 1017.3
20260505235333 65 264 0.0 1.7 0.00 0.00 0.00 70 1017.4
20260505234846 65 38 0.0 1.7 0.00 0.00 0.00 70 1017.4
20260505234342 65 80 0.0 1.7 0.00 0.00 0.00 70 1017.4
20260505233838 64 263 0.0 2.6 0.00 0.00 0.00 71 1017.5
20260505233405 64 256 0.9 2.6 0.00 0.00 0.00 70 1017.4
20260505232840 65 282 0.9 2.6 0.00 0.00 0.00 69 1017.5
20260505232338 65 238 0.9 2.6 0.00 0.00 0.00 70 1017.5
20260505231858 65 9 0.0 1.7 0.00 0.00 0.00 71 1017.6
20260505231355 65 264 0.0 3.5 0.00 0.00 0.00 71 1017.5
20260505230832 65 226 0.9 3.5 0.00 0.00 0.00 69 1017.5
20260505230414 66 247 0.0 0.9 0.00 0.00 0.00 70 1017.5
20260505225851 65 32 0.0 0.9 0.00 0.00 0.00 71 1017.6
20260505225349 64 274 0.0 3.5 0.00 0.00 0.00 71 1017.6
20260505224906 64 284 0.0 3.5 0.00 0.00 0.00 72 1017.6
20260505224342 64 264 0.0 2.6 0.00 0.00 0.00 71 1017.7
20260505223839 65 23 0.9 3.5 0.00 0.00 0.00 71 1017.8
20260505223347 65 44 0.0 3.5 0.00 0.00 0.00 70 1017.8
20260505222845 65 264 0.0 1.7 0.00 0.00 0.00 70 1017.9
20260505222341 65 257 0.0 0.9 0.00 0.00 0.00 70 1017.9
20260505221900 65 215 0.0 1.7 0.00 0.00 0.00 70 1017.9
20260505221335 65 252 0.9 1.7 0.00 0.00 0.00 68 1017.9
20260505220832 65 314 0.0 2.6 0.00 0.00 0.00 71 1017.9
20260505220418 64 260 0.0 2.6 0.00 0.00 0.00 70 1018.0
20260505215853 65 151 0.0 3.5 0.00 0.00 0.00 69 1018.0
20260505215350 64 229 0.9 3.5 0.00 0.00 0.00 70 1018.1
20260505214847 65 247 0.0 0.9 0.00 0.00 0.00 71 1018.1
20260505214345 65 63 0.0 1.7 0.00 0.00 0.00 69 1018.1
20260505213843 64 265 0.9 1.7 0.00 0.00 0.00 70 1018.1
20260505213340 65 274 0.0 0.9 0.00 0.00 0.00 69 1018.1
20260505212838 65 272 0.0 0.9 0.00 0.00 0.00 72 1018.1
20260505212348 64 248 0.0 3.5 0.00 0.00 0.00 71 1018.3
20260505211914 65 30 0.9 3.5 0.00 0.00 0.00 70 1018.2